Location: Bijele Vode
(45.2833°N, 16.2000°E)
Time: 09:54:53
(UTC+00:00)

CENTAUR R/B - Visible Passes

Search period start: 17 January 2021 00:00
Search period end: 27 January 2021 00:00
Orbit: 750 x 1438 km, 63.4° (Epoch: 11 January)

Date Brightness Start Highest point End Pass type
(mag) Time Alt. Az. Time Alt. Az. Time Alt. Az.
17 Jan 6.0 17:12:59 10° WNW 17:18:22 19° WSW 17:23:55 10° SW visible
18 Jan 5.3 05:15:48 10° SSE 05:19:53 20° ESE 05:24:23 10° ENE visible
18 Jan 5.4 16:23:34 10° NW 16:30:31 30° WSW 16:37:49 10° SSW visible
19 Jan 5.9 04:32:03 10° ESE 04:32:20 10° E 04:32:36 10° E visible
20 Jan 4.1 05:27:56 10° S 05:33:15 39° ESE 05:39:27 10° NE visible
20 Jan 6.2 16:39:10 10° WNW 16:43:59 17° WSW 16:48:56 10° SW visible
21 Jan 5.0 04:41:05 10° SSE 04:45:29 23° ESE 04:50:25 10° ENE visible
22 Jan 5.5 03:55:43 10° ESE 03:57:53 12° ESE 04:00:09 10° E visible
22 Jan 2.8 05:41:09 10° SSW 05:46:58 74° ESE 05:53:54 10° NE visible
23 Jan 3.7 04:53:28 10° S 04:58:55 44° ESE 05:05:19 10° NE visible
24 Jan 4.6 04:06:24 10° SSE 04:11:05 26° ESE 04:16:23 10° NE visible
25 Jan 5.1 03:20:29 10° SE 03:23:27 14° ESE 03:26:37 10° ENE visible
25 Jan 2.6 05:06:50 10° SSW 05:12:41 82° SE 05:19:41 10° NE visible
26 Jan 3.3 04:19:02 10° SSW 04:24:35 50° ESE 04:31:09 10° NE visible
